Clarksburg, WV

11:26 AM EDT on August 23, 2019 (GMT -0400)
Benedum

Weather History for KCKB - May, 2019

Change the Weather History Date:

Saturday, May 25, 2019

  Actual Average Record
Temperature  
Mean Temperature 74 °F -  
Max Temperature 88 °F 77 °F 91 °F (1939)
Min Temperature 60 °F 52 °F 32 °F (2013)
Cooling Degree Days 9    
Month to date cooling degree days 100  
Year to date cooling degree days 125  
Growing Degree Days 24 (Base 50)    
Moisture  
Dew Point 65 °F    
Average Humidity 70    
Maximum Humidity 90    
Minimum Humidity 50    
Precipitation  
Precipitation 0.64 in - - ()
Month to date precipitation 2.84  
Year to date precipitation 16.97  
Sea Level Pressure  
Sea Level Pressure 30.05 in    
Wind  
Wind Speed 4 mph (SSW)    
Max Wind Speed 17 mph    
Max Gust Speed 22 mph    
Visibility 9 miles    
Events Rain , Thunderstorm    
Averages and records for this station are not official NWS values.
T = Trace of Precipitation, MM = Missing Value Source: NWS Daily Summary

Daily Weather History Graph

Daily Weather History Graph

Search for Another Location

Airport or City:

Astronomy

May. 25, 2019 Rise Set
Actual Time 5:59 AM EDT 8:36 PM EDT
Civil Twilight 5:28 AM EDT 9:07 PM EDT
Nautical Twilight 4:50 AM EDT 9:46 PM EDT
Astronomical Twilight 4:06 AM EDT 10:29 PM EDT
Moon 1:36 AM EDT (5/25) 11:57 AM EDT (5/25)
Length of Visible Light 15h 38m
Length of Day
14h 36m
Waning Gibbous, 60% of the Moon is Illuminated
May 25
Waning Gibbous
May 26
Last Quarter
Jun 3
New
Jun 10
First Quarter
Jun 17
Full

Hourly Weather History & Observations

Time (EDT) Temp. Heat Index Dew Point Humidity Pressure Visibility Wind Dir Wind Speed Gust Speed Precip Events Conditions
12:53 AM 63.0 °F - 57.9 °F 84% 30.09 in 10.0 mi NNE 4.6 mph - N/A   Clear
1:53 AM 64.0 °F - 57.9 °F 80% 30.09 in 10.0 mi Calm Calm - N/A   Partly Cloudy
2:53 AM 62.1 °F - 57.9 °F 86% 30.08 in 10.0 mi Calm Calm - N/A   Clear
3:53 AM 62.1 °F - 57.9 °F 86% 30.08 in 10.0 mi Calm Calm - N/A   Clear
4:53 AM 61.0 °F - 57.9 °F 90% 30.08 in 10.0 mi Calm Calm - N/A   Clear
5:53 AM 61.0 °F - 57.9 °F 90% 30.09 in 10.0 mi Calm Calm - N/A   Clear
6:53 AM 63.0 °F - 59.0 °F 87% 30.09 in 10.0 mi Calm Calm - N/A   Clear
7:53 AM 68.0 °F - 62.1 °F 81% 30.09 in 10.0 mi Calm Calm - N/A   Clear
8:53 AM 73.9 °F - 64.0 °F 71% 30.09 in 10.0 mi South 4.6 mph - N/A   Clear
9:53 AM 81.0 °F 83.3 °F 66.9 °F 62% 30.09 in 10.0 mi SSW 6.9 mph - N/A   Partly Cloudy
10:53 AM 84.0 °F 86.3 °F 66.0 °F 55% 30.08 in 10.0 mi SSW 8.1 mph - N/A   Clear
11:53 AM 87.1 °F 89.2 °F 66.0 °F 49% 30.06 in 10.0 mi SSW 12.7 mph - N/A   Partly Cloudy
12:53 PM 86.0 °F 88.8 °F 66.9 °F 53% 30.03 in 10.0 mi SSW 9.2 mph - N/A   Partly Cloudy
1:50 PM 82.4 °F 84.6 °F 66.2 °F 58% 30.06 in 10.0 mi SSW 6.9 mph - N/A Thunderstorm Mostly Cloudy
1:53 PM 81.0 °F 83.3 °F 66.9 °F 62% 30.02 in 10.0 mi SSW 5.8 mph - N/A Thunderstorm Mostly Cloudy
2:06 PM 81.0 °F 83.3 °F 66.9 °F 62% 30.05 in 10.0 mi SE 4.6 mph - N/A Thunderstorm Thunderstorm
2:10 PM 81.0 °F 83.3 °F 66.9 °F 62% 30.05 in 1.8 mi SE 5.8 mph - 0.00 in Rain , Thunderstorm Light Thunderstorms and Rain
2:31 PM 73.9 °F - 66.9 °F 79% 30.09 in 1.8 mi West 11.5 mph - 0.17 in Rain , Thunderstorm Heavy Thunderstorms and Rain
2:51 PM 71.6 °F - 68.0 °F 88% 30.09 in 0.8 mi SSW 9.2 mph - 0.63 in Rain , Thunderstorm Light Rain
2:53 PM 72.0 °F - 68.0 °F 87% 30.06 in 10.0 mi Variable 4.6 mph - 0.63 in Rain , Thunderstorm Light Rain
3:06 PM 73.9 °F - 70.0 °F 87% 30.08 in 10.0 mi North 5.8 mph - 0.00 in   Mostly Cloudy
3:53 PM 79.0 °F - 70.0 °F 74% 30.03 in 10.0 mi Calm Calm - 0.00 in   Partly Cloudy
4:53 PM 81.0 °F 84.4 °F 70.0 °F 69% 30.01 in 10.0 mi Calm Calm - N/A   Clear
5:53 PM 82.9 °F 86.5 °F 69.1 °F 63% 30.00 in 10.0 mi Calm Calm - N/A   Clear
6:41 PM 82.9 °F 85.4 °F 66.9 °F 58% 30.03 in 10.0 mi SW 9.2 mph - N/A Thunderstorm Scattered Clouds
6:53 PM 82.0 °F 84.9 °F 68.0 °F 62% 29.99 in 10.0 mi SW 10.4 mph - 0.00 in Rain , Thunderstorm Light Rain
7:33 PM 80.1 °F 82.1 °F 66.0 °F 62% 30.04 in 10.0 mi SW 9.2 mph - 0.01 in   Partly Cloudy
7:53 PM 78.1 °F - 66.0 °F 66% 30.00 in 10.0 mi South 5.8 mph - 0.01 in   Clear
8:53 PM 73.9 °F - 64.9 °F 73% 30.01 in 10.0 mi SSW 5.8 mph - N/A   Clear
9:53 PM 73.9 °F - 64.9 °F 73% 30.01 in 10.0 mi SSW 6.9 mph - N/A   Partly Cloudy
10:53 PM 72.0 °F - 66.0 °F 81% 30.04 in 10.0 mi NNE 5.8 mph - N/A   Overcast
11:53 PM 73.0 °F - 66.0 °F 79% 30.03 in 10.0 mi Calm Calm - N/A   Mostly Cloudy